Regional Weather Roundup
Issued by NWS Goodland, KS

Home | Current Version | Previous Version | Text Only | Print | Product List | Glossary Off
Versions: 1 2 3 4 5 6 7 8 9 10 11 12 13 14 15 16 17 18 19 20 21 22 23 24 25 26 27 28 29 30 31 32 33 34 35 36 37 38 39 40 41 42 43 44 45 46 47 48 49 50

000
ASUS43 KGLD 222159
RWRGLD

GOODLAND FORECAST AREA HOURLY WEATHER ROUNDUP
NATIONAL WEATHER SERVICE GOODLAND KS
400 PM MDT TUE JUL 22 2014

...OFFICIAL OBSERVATIONS...

CITY           SKY/WX    TMP DP  RH WIND       PRES   REMARKS
GOODLAND KS    SUNNY     95  61  32 SE3       30.17F
HILL CITY KS   SUNNY    100  65  31 SE9       30.08S HX 103
IMPERIAL NEB   SUNNY     94  59  31 E14       30.18F
MCCOOK NEB     SUNNY     93  66  40 E10       30.14S
AKRON CO       SUNNY     92  55  28 E12G20    30.26F
BURLINGTON CO  SUNNY     95  51  22 SE5       30.21S
LIMON CO       SUNNY     93  46  19 MISG      30.29F
$$

...UNOFFICIAL OBSERVATIONS...

CITY           SKY/WX    TMP DP  RH WIND       PRES   REMARKS
COLBY KS       SUNNY     97  68  38 E13       30.15S HX 101
GOVE KS          N/A     97  32  10 MISG        N/A
LENORA KS        N/A     96  32  10 MISG        N/A
NORTON KS      SUNNY     97  55  24 CALM      30.09S
SHARON SPRINGS   N/A     97  64  33 N6          N/A
WAKEENEY KS      N/A     99  59  26 MISG        N/A
KIT CARSON CO    N/A     99  51  19 N7G16       N/A
YUMA CO          N/A     91  58  32 E12         N/A
$$


USA.gov is the U.S. government's official web portal to all federal, state and local government web resources and services.